Time,TemperatureF,DewpointF,PressureIn,WindDirection,WindDirectionDegrees,WindSpeedMPH,WindSpeedGustMPH,Humidity,HourlyPrecipIn,Conditions,Clouds,dailyrainin,SoftwareType,DateUTC
2013-02-16 00:03:00,28.9,13.1,29.56,NE,35,4.0,6.6,51,0.00,,---,0.00,VWS V14.00,2013-02-16 06:03:00,
2013-02-16 00:08:00,28.8,12.9,29.56,NE,35,4.0,5.8,51,0.00,,---,0.00,VWS V14.00,2013-02-16 06:08:00,
2013-02-16 00:53:00,26.1,12.5,29.56,NNE,31,0.0,1.0,56,0.00,,---,0.00,VWS V14.00,2013-02-16 06:53:00,
2013-02-16 00:58:00,26.1,12.9,29.56,NNE,31,0.0,1.0,57,0.00,,---,0.00,VWS V14.00,2013-02-16 06:58:00,
2013-02-16 01:03:00,25.9,12.8,29.53,NNE,31,0.0,1.0,57,0.00,,---,0.00,VWS V14.00,2013-02-16 07:03:00,
2013-02-16 01:08:00,25.7,12.6,29.53,NNE,31,0.0,1.0,57,0.00,,---,0.00,VWS V14.00,2013-02-16 07:08:00,
2013-02-16 01:13:00,25.5,12.4,29.53,NNE,31,0.0,1.0,57,0.00,,---,0.00,VWS V14.00,2013-02-16 07:13:00,
2013-02-16 01:18:00,25.3,12.2,29.53,NNE,31,0.0,1.0,57,0.00,,---,0.00,VWS V14.00,2013-02-16 07:18:00,
2013-02-16 01:23:00,25.3,12.6,29.53,NNE,31,0.0,1.0,58,0.00,,---,0.00,VWS V14.00,2013-02-16 07:23:00,
2013-02-16 01:28:00,25.3,12.6,29.53,NNE,31,0.0,1.0,58,0.00,,---,0.00,VWS V14.00,2013-02-16 07:28:00,
2013-02-16 01:33:00,25.3,13.0,29.53,NNE,31,0.0,1.0,59,0.00,,---,0.00,VWS V14.00,2013-02-16 07:33:00,
2013-02-16 01:38:00,25.0,13.1,29.53,North,2,3.4,5.0,60,0.00,,---,0.00,VWS V14.00,2013-02-16 07:38:00,
2013-02-16 01:43:00,25.0,13.1,29.53,North,2,3.4,5.0,60,0.00,,---,0.00,VWS V14.00,2013-02-16 07:43:00,
2013-02-16 01:48:00,25.0,13.1,29.53,North,2,0.0,1.0,60,0.00,,---,0.00,VWS V14.00,2013-02-16 07:48:00,
2013-02-16 01:53:00,25.0,13.1,29.53,North,2,0.0,1.0,60,0.00,,---,0.00,VWS V14.00,2013-02-16 07:53:00,
2013-02-16 01:58:00,25.0,13.4,29.53,North,2,0.0,1.0,61,0.00,,---,0.00,VWS V14.00,2013-02-16 07:58:00,
2013-02-16 02:03:00,25.0,13.4,29.53,North,2,0.0,1.0,61,0.00,,---,0.00,VWS V14.00,2013-02-16 08:03:00,
2013-02-16 02:08:00,24.8,13.3,29.53,North,2,0.0,1.0,61,0.00,,---,0.00,VWS V14.00,2013-02-16 08:08:00,
2013-02-16 02:13:00,24.6,13.5,29.53,North,2,0.0,1.0,62,0.00,,---,0.00,VWS V14.00,2013-02-16 08:13:00,
2013-02-16 02:18:00,24.4,13.3,29.53,North,2,0.0,1.0,62,0.00,,---,0.00,VWS V14.00,2013-02-16 08:18:00,
2013-02-16 02:23:00,24.4,13.7,29.53,North,2,0.0,1.0,63,0.00,,---,0.00,VWS V14.00,2013-02-16 08:23:00,
2013-02-16 02:28:00,24.3,13.5,29.53,North,2,0.0,1.0,63,0.00,,---,0.00,VWS V14.00,2013-02-16 08:28:00,
2013-02-16 02:33:00,24.3,13.5,29.53,North,2,0.0,1.0,63,0.00,,---,0.00,VWS V14.00,2013-02-16 08:33:00,
2013-02-16 02:38:00,23.9,13.5,29.53,WNW,285,4.7,6.6,64,0.00,,---,0.00,VWS V14.00,2013-02-16 08:38:00,
2013-02-16 02:43:00,23.7,14.0,29.53,WNW,282,4.0,6.6,66,0.00,,---,0.00,VWS V14.00,2013-02-16 08:43:00,
2013-02-16 02:48:00,23.7,14.0,29.53,WNW,282,4.7,6.6,66,0.00,,---,0.00,VWS V14.00,2013-02-16 08:48:00,
2013-02-16 02:53:00,23.7,14.4,29.53,West,281,4.7,6.6,67,0.00,,---,0.00,VWS V14.00,2013-02-16 08:53:00,
2013-02-16 02:58:00,23.7,14.7,29.53,West,275,4.0,5.8,68,0.00,,---,0.00,VWS V14.00,2013-02-16 08:58:00,
2013-02-16 03:03:00,23.7,14.7,29.53,West,275,4.0,6.6,68,0.00,,---,0.00,VWS V14.00,2013-02-16 09:03:00,
2013-02-16 03:08:00,23.7,14.7,29.53,West,275,3.4,5.0,68,0.00,,---,0.00,VWS V14.00,2013-02-16 09:08:00,
2013-02-16 03:13:00,23.7,15.1,29.53,West,275,4.0,5.8,69,0.00,,---,0.00,VWS V14.00,2013-02-16 09:13:00,
2013-02-16 03:18:00,23.7,15.1,29.53,West,275,3.4,5.8,69,0.00,,---,0.00,VWS V14.00,2013-02-16 09:18:00,
2013-02-16 03:23:00,23.5,15.2,29.53,West,275,4.0,5.8,70,0.00,,---,0.00,VWS V14.00,2013-02-16 09:23:00,
2013-02-16 03:28:00,23.5,15.2,29.53,West,275,4.7,6.6,70,0.00,,---,0.00,VWS V14.00,2013-02-16 09:28:00,
2013-02-16 03:33:00,23.7,15.4,29.53,West,275,4.0,5.8,70,0.00,,---,0.00,VWS V14.00,2013-02-16 09:33:00,
2013-02-16 03:38:00,23.9,15.2,29.53,West,275,4.0,5.8,69,0.00,,---,0.00,VWS V14.00,2013-02-16 09:38:00,
2013-02-16 03:43:00,23.9,15.2,29.53,West,275,4.0,5.8,69,0.00,,---,0.00,VWS V14.00,2013-02-16 09:43:00,
2013-02-16 03:48:00,23.7,15.1,29.53,West,275,3.4,5.8,69,0.00,,---,0.00,VWS V14.00,2013-02-16 09:48:00,
2013-02-16 03:53:00,23.7,15.1,29.53,West,275,4.0,5.8,69,0.00,,---,0.00,VWS V14.00,2013-02-16 09:53:00,
2013-02-16 03:58:00,23.7,15.1,29.53,West,275,4.0,5.8,69,0.00,,---,0.00,VWS V14.00,2013-02-16 09:58:00,
2013-02-16 04:03:00,23.7,15.1,29.53,West,275,4.0,6.6,69,0.00,,---,0.00,VWS V14.00,2013-02-16 10:03:00,
2013-02-16 04:08:00,23.7,15.1,29.53,West,265,4.0,7.4,69,0.00,,---,0.00,VWS V14.00,2013-02-16 10:08:00,
2013-02-16 04:13:00,23.5,14.9,29.53,West,265,3.4,5.8,69,0.00,,---,0.00,VWS V14.00,2013-02-16 10:13:00,
2013-02-16 04:18:00,23.5,14.9,29.53,West,265,4.0,5.8,69,0.00,,---,0.00,VWS V14.00,2013-02-16 10:18:00,
2013-02-16 04:23:00,23.5,15.2,29.53,West,268,3.4,5.8,70,0.00,,---,0.00,VWS V14.00,2013-02-16 10:23:00,
2013-02-16 04:28:00,23.4,15.0,29.53,West,267,0.0,5.0,70,0.00,,---,0.00,VWS V14.00,2013-02-16 10:28:00,
2013-02-16 04:33:00,23.2,14.9,29.53,West,268,3.4,5.0,70,0.00,,---,0.00,VWS V14.00,2013-02-16 10:33:00,
2013-02-16 04:38:00,23.4,15.0,29.53,West,268,4.0,5.8,70,0.00,,---,0.00,VWS V14.00,2013-02-16 10:38:00,
2013-02-16 04:43:00,23.4,15.0,29.53,West,268,4.7,6.6,70,0.00,,---,0.00,VWS V14.00,2013-02-16 10:43:00,
2013-02-16 04:48:00,23.2,14.9,29.53,West,268,5.4,7.4,70,0.00,,---,0.00,VWS V14.00,2013-02-16 10:48:00,
2013-02-16 04:53:00,23.2,14.9,29.53,West,268,4.7,6.6,70,0.00,,---,0.00,VWS V14.00,2013-02-16 10:53:00,
2013-02-16 04:58:00,23.2,15.2,29.53,West,268,4.7,7.4,71,0.00,,---,0.00,VWS V14.00,2013-02-16 10:58:00,
2013-02-16 05:03:00,23.4,15.4,29.53,West,269,4.7,7.4,71,0.00,,---,0.00,VWS V14.00,2013-02-16 11:03:00,
2013-02-16 05:08:00,23.7,16.0,29.53,West,271,4.0,7.4,72,0.00,,---,0.00,VWS V14.00,2013-02-16 11:08:00,
2013-02-16 05:13:00,24.1,16.4,29.53,West,271,4.0,5.8,72,0.00,,---,0.00,VWS V14.00,2013-02-16 11:13:00,
2013-02-16 05:18:00,24.3,16.5,29.53,WNW,300,4.0,5.8,72,0.00,,---,0.00,VWS V14.00,2013-02-16 11:18:00,
2013-02-16 05:23:00,25.2,17.1,29.53,WNW,288,4.0,7.4,71,0.00,,---,0.00,VWS V14.00,2013-02-16 11:23:00,
2013-02-16 05:29:00,25.7,17.3,29.53,WNW,285,4.0,5.8,70,0.00,,---,0.00,VWS V14.00,2013-02-16 11:29:00,
2013-02-16 05:34:00,26.1,17.0,29.53,WNW,287,4.7,6.6,68,0.00,,---,0.00,VWS V14.00,2013-02-16 11:34:00,
2013-02-16 05:39:00,26.2,16.8,29.53,WNW,292,5.4,7.4,67,0.00,,---,0.00,VWS V14.00,2013-02-16 11:39:00,
2013-02-16 05:44:00,26.4,16.6,29.53,WNW,284,6.0,8.2,66,0.00,,---,0.00,VWS V14.00,2013-02-16 11:44:00,
2013-02-16 05:49:00,26.4,16.6,29.53,WNW,284,7.4,10.7,66,0.00,,---,0.00,VWS V14.00,2013-02-16 11:49:00,
2013-02-16 05:54:00,26.4,16.3,29.53,WNW,302,5.4,7.4,65,0.00,,---,0.00,VWS V14.00,2013-02-16 11:54:00,
2013-02-16 05:59:00,26.6,16.1,29.53,WNW,292,4.7,6.6,64,0.00,,---,0.00,VWS V14.00,2013-02-16 11:59:00,
2013-02-16 06:04:00,27.0,16.1,29.53,WNW,289,5.4,7.4,63,0.00,,---,0.00,VWS V14.00,2013-02-16 12:04:00,
2013-02-16 06:09:00,27.0,16.1,29.53,NNW,327,4.0,5.8,63,0.00,,---,0.00,VWS V14.00,2013-02-16 12:09:00,
2013-02-16 06:14:00,27.1,16.2,29.53,North,0,5.4,7.4,63,0.00,,---,0.00,VWS V14.00,2013-02-16 12:14:00,
2013-02-16 06:19:00,27.0,15.7,29.53,NW,314,5.4,7.4,62,0.00,,---,0.00,VWS V14.00,2013-02-16 12:19:00,
2013-02-16 06:24:00,27.1,15.9,29.53,NW,325,4.0,6.6,62,0.00,,---,0.00,VWS V14.00,2013-02-16 12:24:00,
2013-02-16 06:29:00,27.1,15.9,29.53,NNW,333,4.7,6.6,62,0.00,,---,0.00,VWS V14.00,2013-02-16 12:29:00,
2013-02-16 06:34:00,27.1,15.5,29.53,NW,323,4.0,5.8,61,0.00,,---,0.00,VWS V14.00,2013-02-16 12:34:00,
2013-02-16 06:39:00,27.0,15.3,29.53,North,1,8.1,10.7,61,0.00,,---,0.00,VWS V14.00,2013-02-16 12:39:00,
2013-02-16 06:44:00,27.0,15.3,29.53,North,357,6.0,8.2,61,0.00,,---,0.00,VWS V14.00,2013-02-16 12:44:00,
2013-02-16 06:49:00,27.0,15.3,29.53,NNW,331,6.0,8.2,61,0.00,,---,0.00,VWS V14.00,2013-02-16 12:49:00,
2013-02-16 06:54:00,26.8,15.1,29.53,NNW,338,4.0,9.1,61,0.00,,---,0.00,VWS V14.00,2013-02-16 12:54:00,
2013-02-16 06:59:00,26.6,15.4,29.53,NNW,343,11.4,14.7,62,0.00,,---,0.00,VWS V14.00,2013-02-16 12:59:00,
2013-02-16 07:04:00,26.6,15.4,29.53,North,357,6.0,8.2,62,0.00,,---,0.00,VWS V14.00,2013-02-16 13:04:00,
2013-02-16 07:09:00,26.6,15.4,29.53,NNW,337,6.0,12.3,62,0.00,,---,0.00,VWS V14.00,2013-02-16 13:09:00,
2013-02-16 07:14:00,26.6,15.4,29.53,North,353,8.7,11.5,62,0.00,,---,0.00,VWS V14.00,2013-02-16 13:14:00,
2013-02-16 07:19:00,26.6,15.7,29.56,North,9,8.1,10.7,63,0.00,,---,0.00,VWS V14.00,2013-02-16 13:19:00,
2013-02-16 07:24:00,27.0,15.7,29.56,North,353,8.7,11.5,62,0.00,,---,0.00,VWS V14.00,2013-02-16 13:24:00,
2013-02-16 07:29:00,27.0,15.7,29.56,NNW,335,8.1,10.7,62,0.00,,---,0.00,VWS V14.00,2013-02-16 13:29:00,
2013-02-16 07:34:00,27.1,15.9,29.56,NNW,346,12.4,15.9,62,0.00,,---,0.00,VWS V14.00,2013-02-16 13:34:00,
2013-02-16 07:39:00,27.1,15.9,29.56,North,1,11.4,14.7,62,0.00,,---,0.00,VWS V14.00,2013-02-16 13:39:00,
2013-02-16 07:44:00,27.3,16.0,29.56,North,2,12.4,15.9,62,0.00,,---,0.00,VWS V14.00,2013-02-16 13:44:00,
2013-02-16 07:49:00,27.5,16.2,29.56,North,0,7.4,9.9,62,0.00,,---,0.00,VWS V14.00,2013-02-16 13:49:00,
2013-02-16 07:54:00,27.9,16.5,29.56,North,3,11.4,14.7,62,0.00,,---,0.00,VWS V14.00,2013-02-16 13:54:00,
2013-02-16 07:59:00,28.0,16.3,29.56,NNW,339,8.1,10.7,61,0.00,,---,0.00,VWS V14.00,2013-02-16 13:59:00,
2013-02-16 08:04:00,28.0,16.3,29.56,North,0,13.1,16.7,61,0.00,,---,0.00,VWS V14.00,2013-02-16 14:04:00,
2013-02-16 08:09:00,27.9,15.8,29.56,NNE,22,15.1,19.1,60,0.00,,---,0.00,VWS V14.00,2013-02-16 14:09:00,
2013-02-16 08:14:00,27.9,15.8,29.56,North,0,11.4,14.7,60,0.00,,---,0.00,VWS V14.00,2013-02-16 14:14:00,
2013-02-16 08:19:00,27.9,15.4,29.56,NNE,19,13.1,19.1,59,0.00,,---,0.00,VWS V14.00,2013-02-16 14:19:00,
2013-02-16 08:24:00,28.2,15.8,29.56,North,349,15.1,19.1,59,0.00,,---,0.00,VWS V14.00,2013-02-16 14:24:00,
2013-02-16 08:29:00,28.4,15.9,29.56,North,357,9.4,19.1,59,0.00,,---,0.00,VWS V14.00,2013-02-16 14:29:00,
2013-02-16 08:34:00,28.4,15.9,29.56,North,0,13.1,16.7,59,0.00,,---,0.00,VWS V14.00,2013-02-16 14:34:00,
2013-02-16 08:39:00,28.6,15.7,29.56,NNW,329,15.8,24.0,58,0.00,,---,0.00,VWS V14.00,2013-02-16 14:39:00,
2013-02-16 08:44:00,28.6,15.7,29.56,NNW,344,19.1,24.0,58,0.00,,---,0.00,VWS V14.00,2013-02-16 14:44:00,
2013-02-16 08:49:00,28.8,15.9,29.56,NNE,23,13.1,16.7,58,0.00,,---,0.00,VWS V14.00,2013-02-16 14:49:00,
2013-02-16 08:54:00,28.8,15.5,29.56,North,0,15.1,19.1,57,0.00,,---,0.00,VWS V14.00,2013-02-16 14:54:00,
2013-02-16 08:59:00,28.9,15.6,29.56,NNW,344,13.8,19.9,57,0.00,,---,0.00,VWS V14.00,2013-02-16 14:59:00,
2013-02-16 09:04:00,28.9,15.2,29.56,NNE,12,11.4,15.5,56,0.00,,---,0.00,VWS V14.00,2013-02-16 15:04:00,
2013-02-16 09:09:00,29.3,15.6,29.56,North,349,12.1,15.5,56,0.00,,---,0.00,VWS V14.00,2013-02-16 15:09:00,
2013-02-16 09:14:00,29.3,15.6,29.56,NNW,343,10.7,16.7,56,0.00,,---,0.00,VWS V14.00,2013-02-16 15:14:00,
2013-02-16 09:19:00,29.5,15.7,29.56,NNE,21,9.4,14.7,56,0.00,,---,0.00,VWS V14.00,2013-02-16 15:19:00,
2013-02-16 09:24:00,29.8,16.1,29.56,North,11,9.4,12.3,56,0.00,,---,0.00,VWS V14.00,2013-02-16 15:24:00,
2013-02-16 09:29:00,30.0,16.2,29.56,North,4,11.4,14.7,56,0.00,,---,0.00,VWS V14.00,2013-02-16 15:29:00,
2013-02-16 09:34:00,30.0,15.8,29.56,North,0,11.4,14.7,55,0.00,,---,0.00,VWS V14.00,2013-02-16 15:34:00,
2013-02-16 09:39:00,30.2,16.0,29.56,NNW,334,8.1,10.7,55,0.00,,---,0.00,VWS V14.00,2013-02-16 15:39:00,
2013-02-16 09:44:00,30.7,16.1,29.56,NNW,330,15.8,19.9,54,0.00,,---,0.00,VWS V14.00,2013-02-16 15:44:00,
2013-02-16 09:49:00,30.7,15.2,29.59,NNW,342,13.8,24.0,52,0.00,,---,0.00,VWS V14.00,2013-02-16 15:49:00,
2013-02-16 09:54:00,30.9,15.4,29.59,North,357,16.4,20.7,52,0.00,,---,0.00,VWS V14.00,2013-02-16 15:54:00,
2013-02-16 09:59:00,30.9,15.4,29.59,North,350,16.4,20.7,52,0.00,,---,0.00,VWS V14.00,2013-02-16 15:59:00,
2013-02-16 10:04:00,31.1,15.5,29.59,North,357,15.1,20.7,52,0.00,,---,0.00,VWS V14.00,2013-02-16 16:04:00,
2013-02-16 10:09:00,31.3,15.3,29.59,NNW,340,11.4,20.7,51,0.00,,---,0.00,VWS V14.00,2013-02-16 16:09:00,
2013-02-16 10:14:00,31.8,15.3,29.59,NW,322,4.7,6.6,50,0.00,,---,0.00,VWS V14.00,2013-02-16 16:14:00,
2013-02-16 10:19:00,32.0,15.0,29.59,North,7,17.8,22.3,49,0.00,,---,0.00,VWS V14.00,2013-02-16 16:19:00,
2013-02-16 10:24:00,31.8,14.9,29.59,North,357,13.1,16.7,49,0.00,,---,0.00,VWS V14.00,2013-02-16 16:24:00,
2013-02-16 10:29:00,32.4,15.4,29.59,NNW,344,12.1,15.5,49,0.00,,---,0.00,VWS V14.00,2013-02-16 16:29:00,
2013-02-16 10:34:00,32.5,15.5,29.59,North,9,12.1,21.5,49,0.00,,---,0.00,VWS V14.00,2013-02-16 16:34:00,
2013-02-16 10:39:00,32.5,15.0,29.59,North,353,11.4,14.7,48,0.00,,---,0.00,VWS V14.00,2013-02-16 16:39:00,
2013-02-16 10:44:00,32.7,14.7,29.59,WNW,301,8.1,19.1,47,0.00,,---,0.00,VWS V14.00,2013-02-16 16:44:00,
2013-02-16 10:49:00,33.3,15.2,29.59,North,357,12.1,15.5,47,0.00,,---,0.00,VWS V14.00,2013-02-16 16:49:00,
2013-02-16 10:54:00,33.1,15.1,29.59,North,357,9.4,12.3,47,0.00,,---,0.00,VWS V14.00,2013-02-16 16:54:00,
2013-02-16 10:59:00,33.1,15.1,29.59,NW,325,12.1,15.5,47,0.00,,---,0.00,VWS V14.00,2013-02-16 16:59:00,
2013-02-16 11:04:00,33.6,15.6,29.59,North,350,11.4,14.7,47,0.00,,---,0.00,VWS V14.00,2013-02-16 17:04:00,
2013-02-16 11:09:00,34.0,15.4,29.59,NW,306,12.4,15.9,46,0.00,,---,0.00,VWS V14.00,2013-02-16 17:09:00,
2013-02-16 11:14:00,34.3,15.2,29.59,NNW,348,9.4,13.9,45,0.00,,---,0.00,VWS V14.00,2013-02-16 17:14:00,
2013-02-16 11:19:00,34.3,15.2,29.59,NNW,337,12.4,15.9,45,0.00,,---,0.00,VWS V14.00,2013-02-16 17:19:00,
2013-02-16 11:24:00,34.0,14.9,29.59,WNW,303,5.4,16.7,45,0.00,,---,0.00,VWS V14.00,2013-02-16 17:24:00,
2013-02-16 11:29:00,34.5,14.9,29.59,WNW,294,8.1,10.7,44,0.00,,---,0.00,VWS V14.00,2013-02-16 17:29:00,
2013-02-16 11:34:00,35.1,15.4,29.59,NW,315,12.4,15.9,44,0.00,,---,0.00,VWS V14.00,2013-02-16 17:34:00,
2013-02-16 11:39:00,34.5,14.3,29.56,WNW,287,7.4,9.9,43,0.00,,---,0.00,VWS V14.00,2013-02-16 17:39:00,
2013-02-16 11:44:00,34.5,14.3,29.56,NW,311,8.1,10.7,43,0.00,,---,0.00,VWS V14.00,2013-02-16 17:44:00,
2013-02-16 11:49:00,35.1,14.8,29.56,WNW,292,13.1,16.7,43,0.00,,---,0.00,VWS V14.00,2013-02-16 17:49:00,
2013-02-16 11:54:00,35.1,14.8,29.56,WNW,295,8.7,11.5,43,0.00,,---,0.00,VWS V14.00,2013-02-16 17:54:00,
2013-02-16 11:59:00,35.4,14.6,29.56,NNE,15,15.8,19.9,42,0.00,,---,0.00,VWS V14.00,2013-02-16 17:59:00,
2013-02-16 12:04:00,35.4,15.2,29.56,North,3,12.1,15.5,43,0.00,,---,0.00,VWS V14.00,2013-02-16 18:04:00,
2013-02-16 12:09:00,35.4,14.6,29.56,WNW,296,18.5,23.1,42,0.00,,---,0.00,VWS V14.00,2013-02-16 18:09:00,
2013-02-16 12:14:00,35.8,14.9,29.56,NNW,330,9.4,12.3,42,0.00,,---,0.00,VWS V14.00,2013-02-16 18:14:00,
2013-02-16 12:19:00,35.8,14.9,29.56,WNW,301,8.7,11.5,42,0.00,,---,0.00,VWS V14.00,2013-02-16 18:19:00,
2013-02-16 12:24:00,35.8,14.9,29.56,NNW,346,15.8,19.9,42,0.00,,---,0.00,VWS V14.00,2013-02-16 18:24:00,
2013-02-16 12:29:00,35.4,14.6,29.56,West,274,9.4,12.3,42,0.00,,---,0.00,VWS V14.00,2013-02-16 18:29:00,
2013-02-16 12:34:00,36.1,15.3,29.53,NW,312,8.7,11.5,42,0.00,,---,0.00,VWS V14.00,2013-02-16 18:34:00,
2013-02-16 12:39:00,36.0,14.6,29.53,NNW,333,15.1,19.1,41,0.00,,---,0.00,VWS V14.00,2013-02-16 18:39:00,
2013-02-16 12:44:00,36.3,15.4,29.53,NNW,337,15.1,19.1,42,0.00,,---,0.00,VWS V14.00,2013-02-16 18:44:00,
2013-02-16 12:49:00,36.3,14.9,29.56,WNW,294,13.1,16.7,41,0.00,,---,0.00,VWS V14.00,2013-02-16 18:49:00,
2013-02-16 12:54:00,36.3,14.9,29.56,NNE,27,13.8,28.8,41,0.00,,---,0.00,VWS V14.00,2013-02-16 18:54:00,
2013-02-16 12:59:00,36.3,14.3,29.56,West,271,10.7,13.9,40,0.00,,---,0.00,VWS V14.00,2013-02-16 18:59:00,
2013-02-16 13:04:00,36.7,15.2,29.56,North,353,11.4,14.7,41,0.00,,---,0.00,VWS V14.00,2013-02-16 19:04:00,
2013-02-16 13:09:00,36.5,14.5,29.56,NNW,328,12.1,15.9,40,0.00,,---,0.00,VWS V14.00,2013-02-16 19:09:00,
2013-02-16 13:14:00,36.3,13.2,29.56,NW,305,12.1,15.5,38,0.00,,---,0.00,VWS V14.00,2013-02-16 19:14:00,
2013-02-16 13:19:00,36.0,12.8,29.56,North,2,12.4,15.9,38,0.00,,---,0.00,VWS V14.00,2013-02-16 19:19:00,
2013-02-16 13:24:00,36.3,13.8,29.56,NNE,23,15.1,19.1,39,0.00,,---,0.00,VWS V14.00,2013-02-16 19:24:00,
2013-02-16 13:29:00,36.9,14.2,29.56,NNW,327,16.4,20.7,39,0.00,,---,0.00,VWS V14.00,2013-02-16 19:29:00,
2013-02-16 13:34:00,37.4,14.1,29.56,North,357,15.8,19.9,38,0.00,,---,0.00,VWS V14.00,2013-02-16 19:34:00,
2013-02-16 13:39:00,37.6,14.3,29.56,NW,325,8.7,11.5,38,0.00,,---,0.00,VWS V14.00,2013-02-16 19:39:00,
2013-02-16 13:44:00,36.9,13.6,29.56,NNW,343,15.8,19.9,38,0.00,,---,0.00,VWS V14.00,2013-02-16 19:44:00,
2013-02-16 13:49:00,37.0,13.8,29.56,WNW,296,8.1,10.7,38,0.00,,---,0.00,VWS V14.00,2013-02-16 19:49:00,
2013-02-16 13:54:00,37.4,13.5,29.56,NW,318,16.4,20.7,37,0.00,,---,0.00,VWS V14.00,2013-02-16 19:54:00,
2013-02-16 13:59:00,37.4,13.5,29.56,NNW,331,11.4,14.7,37,0.00,,---,0.00,VWS V14.00,2013-02-16 19:59:00,
2013-02-16 14:04:00,37.6,13.7,29.53,West,278,13.8,17.5,37,0.00,,---,0.00,VWS V14.00,2013-02-16 20:04:00,
2013-02-16 14:09:00,36.5,12.7,29.53,WNW,303,4.7,6.6,37,0.00,,---,0.00,VWS V14.00,2013-02-16 20:09:00,
2013-02-16 14:14:00,35.6,11.9,29.53,NNW,335,9.4,12.3,37,0.00,,---,0.00,VWS V14.00,2013-02-16 20:14:00,
2013-02-16 14:19:00,36.1,12.4,29.53,NNW,333,12.4,15.9,37,0.00,,---,0.00,VWS V14.00,2013-02-16 20:19:00,
2013-02-16 14:24:00,36.9,13.0,29.53,NNW,327,12.4,15.9,37,0.00,,---,0.00,VWS V14.00,2013-02-16 20:24:00,
2013-02-16 14:29:00,36.7,12.9,29.53,WNW,283,9.4,12.3,37,0.00,,---,0.00,VWS V14.00,2013-02-16 20:29:00,
2013-02-16 14:34:00,37.2,12.7,29.53,North,353,11.4,15.9,36,0.00,,---,0.00,VWS V14.00,2013-02-16 20:34:00,
2013-02-16 14:39:00,37.0,12.6,29.53,WNW,284,8.7,16.7,36,0.00,,---,0.00,VWS V14.00,2013-02-16 20:39:00,
2013-02-16 14:44:00,36.5,12.1,29.53,WNW,294,8.1,10.7,36,0.00,,---,0.00,VWS V14.00,2013-02-16 20:44:00,
2013-02-16 14:49:00,36.7,12.3,29.53,WNW,285,6.0,8.2,36,0.00,,---,0.00,VWS V14.00,2013-02-16 20:49:00,
2013-02-16 14:54:00,37.4,12.3,29.53,WNW,292,9.4,14.7,35,0.00,,---,0.00,VWS V14.00,2013-02-16 20:54:00,
2013-02-16 14:59:00,36.3,11.3,29.53,NW,324,12.4,15.9,35,0.00,,---,0.00,VWS V14.00,2013-02-16 20:59:00,
2013-02-16 15:04:00,36.7,12.3,29.53,NNW,338,8.7,11.5,36,0.00,,---,0.00,VWS V14.00,2013-02-16 21:04:00,
2013-02-16 15:09:00,37.0,12.6,29.53,North,4,14.4,18.3,36,0.00,,---,0.00,VWS V14.00,2013-02-16 21:09:00,
2013-02-16 15:14:00,37.4,12.3,29.53,North,349,15.1,19.1,35,0.00,,---,0.00,VWS V14.00,2013-02-16 21:14:00,
2013-02-16 15:19:00,36.9,12.4,29.53,West,275,8.1,12.3,36,0.00,,---,0.00,VWS V14.00,2013-02-16 21:19:00,
2013-02-16 15:24:00,37.0,12.6,29.53,NW,313,12.1,15.5,36,0.00,,---,0.00,VWS V14.00,2013-02-16 21:24:00,
2013-02-16 15:29:00,37.2,12.7,29.53,NNE,28,15.1,19.1,36,0.00,,---,0.00,VWS V14.00,2013-02-16 21:29:00,
2013-02-16 15:34:00,37.0,12.6,29.56,NNW,344,12.1,19.9,36,0.00,,---,0.00,VWS V14.00,2013-02-16 21:34:00,
2013-02-16 15:39:00,36.5,11.5,29.56,WNW,302,8.1,16.7,35,0.00,,---,0.00,VWS V14.00,2013-02-16 21:39:00,
2013-02-16 15:44:00,36.5,11.5,29.56,NNE,17,17.1,21.5,35,0.00,,---,0.00,VWS V14.00,2013-02-16 21:44:00,
2013-02-16 15:49:00,36.5,11.5,29.56,NNE,17,13.1,16.7,35,0.00,,---,0.00,VWS V14.00,2013-02-16 21:49:00,
2013-02-16 15:54:00,36.7,11.6,29.56,North,357,12.4,16.7,35,0.00,,---,0.00,VWS V14.00,2013-02-16 21:54:00,
2013-02-16 15:59:00,36.9,11.1,29.56,NW,308,5.4,8.2,34,0.00,,---,0.00,VWS V14.00,2013-02-16 21:59:00,
2013-02-16 16:04:00,37.0,11.9,29.56,WNW,284,8.1,10.7,35,0.00,,---,0.00,VWS V14.00,2013-02-16 22:04:00,
2013-02-16 16:09:00,36.7,11.0,29.56,NW,321,13.1,16.7,34,0.00,,---,0.00,VWS V14.00,2013-02-16 22:09:00,
2013-02-16 16:14:00,36.5,11.5,29.56,NW,320,7.4,12.3,35,0.00,,---,0.00,VWS V14.00,2013-02-16 22:14:00,
2013-02-16 16:19:00,36.0,10.3,29.56,NW,309,6.0,8.2,34,0.00,,---,0.00,VWS V14.00,2013-02-16 22:19:00,
2013-02-16 16:24:00,36.3,10.6,29.56,NNW,341,9.4,12.3,34,0.00,,---,0.00,VWS V14.00,2013-02-16 22:24:00,
2013-02-16 16:29:00,36.1,10.5,29.56,WNW,297,8.7,11.5,34,0.00,,---,0.00,VWS V14.00,2013-02-16 22:29:00,
2013-02-16 16:34:00,36.0,10.3,29.56,NW,304,8.1,10.7,34,0.00,,---,0.00,VWS V14.00,2013-02-16 22:34:00,
2013-02-16 16:39:00,36.0,10.3,29.56,North,357,6.0,8.2,34,0.00,,---,0.00,VWS V14.00,2013-02-16 22:39:00,
2013-02-16 16:44:00,35.6,10.0,29.56,NNW,343,13.1,16.7,34,0.00,,---,0.00,VWS V14.00,2013-02-16 22:44:00,
2013-02-16 16:49:00,35.2,10.3,29.56,NNW,344,9.4,12.3,35,0.00,,---,0.00,VWS V14.00,2013-02-16 22:49:00,
2013-02-16 16:54:00,35.1,10.2,29.56,North,4,6.7,9.9,35,0.00,,---,0.00,VWS V14.00,2013-02-16 22:54:00,
2013-02-16 16:59:00,34.9,10.0,29.56,NW,324,10.1,13.1,35,0.00,,---,0.00,VWS V14.00,2013-02-16 22:59:00,
2013-02-16 17:04:00,34.9,10.0,29.56,NNE,16,11.4,14.7,35,0.00,,---,0.00,VWS V14.00,2013-02-16 23:04:00,
2013-02-16 17:09:00,34.7,9.9,29.56,North,0,8.1,10.7,35,0.00,,---,0.00,VWS V14.00,2013-02-16 23:09:00,
2013-02-16 17:14:00,34.5,9.7,29.56,WNW,283,4.7,6.6,35,0.00,,---,0.00,VWS V14.00,2013-02-16 23:14:00,
2013-02-16 17:20:00,34.5,9.7,29.56,NW,321,8.7,11.5,35,0.00,,---,0.00,VWS V14.00,2013-02-16 23:20:00,
2013-02-16 17:25:00,34.2,9.4,29.56,North,353,4.7,6.6,35,0.00,,---,0.00,VWS V14.00,2013-02-16 23:25:00,
2013-02-16 17:30:00,34.0,9.2,29.56,NNW,335,6.0,8.2,35,0.00,,---,0.00,VWS V14.00,2013-02-16 23:30:00,
2013-02-16 17:35:00,33.8,9.1,29.56,NNW,331,6.0,8.2,35,0.00,,---,0.00,VWS V14.00,2013-02-16 23:35:00,
2013-02-16 17:40:00,33.4,8.7,29.56,West,275,4.7,6.6,35,0.00,,---,0.00,VWS V14.00,2013-02-16 23:40:00,
2013-02-16 17:45:00,33.3,8.6,29.56,WNW,302,4.0,5.8,35,0.00,,---,0.00,VWS V14.00,2013-02-16 23:45:00,
2013-02-16 17:50:00,33.1,8.4,29.56,NW,308,0.0,5.8,35,0.00,,---,0.00,VWS V14.00,2013-02-16 23:50:00,
2013-02-16 17:55:00,32.7,8.1,29.56,NW,304,0.0,1.0,35,0.00,,---,0.00,VWS V14.00,2013-02-16 23:55:00,
2013-02-16 18:00:00,32.4,7.8,29.56,WNW,298,0.0,1.0,35,0.00,,---,0.00,VWS V14.00,2013-02-17 00:00:00,
2013-02-16 18:05:00,31.6,7.8,29.56,WNW,298,0.0,1.0,36,0.00,,---,0.00,VWS V14.00,2013-02-17 00:05:00,
2013-02-16 18:10:00,31.6,7.8,29.56,WNW,298,0.0,1.0,36,0.00,,---,0.00,VWS V14.00,2013-02-17 00:10:00,
2013-02-16 18:15:00,31.3,7.4,29.56,WNW,298,0.0,1.0,36,0.00,,---,0.00,VWS V14.00,2013-02-17 00:15:00,
2013-02-16 18:20:00,30.7,7.0,29.56,WNW,298,0.0,1.0,36,0.00,,---,0.00,VWS V14.00,2013-02-17 00:20:00,
2013-02-16 18:25:00,30.2,7.1,29.56,WNW,298,0.0,1.0,37,0.00,,---,0.00,VWS V14.00,2013-02-17 00:25:00,
2013-02-16 18:30:00,29.8,6.8,29.56,WNW,298,0.0,1.0,37,0.00,,---,0.00,VWS V14.00,2013-02-17 00:30:00,
2013-02-16 18:35:00,29.3,6.3,29.56,WNW,298,0.0,1.0,37,0.00,,---,0.00,VWS V14.00,2013-02-17 00:35:00,
2013-02-16 18:40:00,28.6,6.2,29.56,WNW,298,0.0,1.0,38,0.00,,---,0.00,VWS V14.00,2013-02-17 00:40:00,
2013-02-16 18:45:00,28.4,6.6,29.56,WNW,298,0.0,1.0,39,0.00,,---,0.00,VWS V14.00,2013-02-17 00:45:00,
2013-02-16 18:50:00,27.9,6.7,29.56,WNW,298,0.0,1.0,40,0.00,,---,0.00,VWS V14.00,2013-02-17 00:50:00,
2013-02-16 18:55:00,27.9,7.8,29.56,WNW,298,0.0,1.0,42,0.00,,---,0.00,VWS V14.00,2013-02-17 00:55:00,
2013-02-16 19:00:00,27.5,7.4,29.56,WNW,298,0.0,1.0,42,0.00,,---,0.00,VWS V14.00,2013-02-17 01:00:00,
2013-02-16 19:05:00,27.3,7.8,29.56,WNW,298,0.0,1.0,43,0.00,,---,0.00,VWS V14.00,2013-02-17 01:05:00,
2013-02-16 19:10:00,27.0,7.5,29.56,WNW,298,0.0,1.0,43,0.00,,---,0.00,VWS V14.00,2013-02-17 01:10:00,
2013-02-16 19:15:00,26.8,7.8,29.56,WNW,298,0.0,1.0,44,0.00,,---,0.00,VWS V14.00,2013-02-17 01:15:00,
2013-02-16 19:20:00,26.4,8.0,29.56,WNW,298,0.0,1.0,45,0.00,,---,0.00,VWS V14.00,2013-02-17 01:20:00,
2013-02-16 19:25:00,26.1,7.6,29.56,WNW,298,0.0,1.0,45,0.00,,---,0.00,VWS V14.00,2013-02-17 01:25:00,
2013-02-16 19:30:00,26.1,8.1,29.56,WNW,298,0.0,1.0,46,0.00,,---,0.00,VWS V14.00,2013-02-17 01:30:00,
2013-02-16 19:35:00,25.7,7.8,29.56,WNW,298,0.0,1.0,46,0.00,,---,0.00,VWS V14.00,2013-02-17 01:35:00,
2013-02-16 19:40:00,25.7,7.8,29.56,WNW,298,0.0,1.0,46,0.00,,---,0.00,VWS V14.00,2013-02-17 01:40:00,
2013-02-16 19:45:00,25.7,7.8,29.56,WNW,298,0.0,1.0,46,0.00,,---,0.00,VWS V14.00,2013-02-17 01:45:00,
2013-02-16 19:50:00,25.5,7.6,29.56,WNW,298,0.0,1.0,46,0.00,,---,0.00,VWS V14.00,2013-02-17 01:50:00,
2013-02-16 19:55:00,25.5,7.6,29.56,WNW,298,0.0,1.0,46,0.00,,---,0.00,VWS V14.00,2013-02-17 01:55:00,
2013-02-16 20:00:00,25.3,7.9,29.56,WNW,298,0.0,1.0,47,0.00,,---,0.00,VWS V14.00,2013-02-17 02:00:00,
2013-02-16 20:05:00,25.3,7.9,29.56,WNW,298,0.0,1.0,47,0.00,,---,0.00,VWS V14.00,2013-02-17 02:05:00,
2013-02-16 20:10:00,25.2,7.8,29.56,WNW,298,0.0,1.0,47,0.00,,---,0.00,VWS V14.00,2013-02-17 02:10:00,
2013-02-16 20:15:00,25.0,8.1,29.56,WNW,298,0.0,1.0,48,0.00,,---,0.00,VWS V14.00,2013-02-17 02:15:00,
2013-02-16 20:20:00,24.8,7.9,29.56,WNW,298,0.0,1.0,48,0.00,,---,0.00,VWS V14.00,2013-02-17 02:20:00,
2013-02-16 20:25:00,24.8,7.9,29.56,WNW,298,0.0,1.0,48,0.00,,---,0.00,VWS V14.00,2013-02-17 02:25:00,
2013-02-16 20:30:00,24.4,8.0,29.56,WNW,298,0.0,1.0,49,0.00,,---,0.00,VWS V14.00,2013-02-17 02:30:00,
2013-02-16 20:35:00,24.4,8.5,29.56,WNW,298,0.0,1.0,50,0.00,,---,0.00,VWS V14.00,2013-02-17 02:35:00,
2013-02-16 20:40:00,24.1,8.1,29.56,WNW,298,0.0,1.0,50,0.00,,---,0.00,VWS V14.00,2013-02-17 02:40:00,
2013-02-16 20:45:00,23.9,8.0,29.56,WNW,298,0.0,1.0,50,0.00,,---,0.00,VWS V14.00,2013-02-17 02:45:00,
2013-02-16 20:50:00,23.7,7.8,29.56,WNW,298,0.0,1.0,50,0.00,,---,0.00,VWS V14.00,2013-02-17 02:50:00,
2013-02-16 20:55:00,23.5,8.1,29.56,WNW,298,0.0,1.0,51,0.00,,---,0.00,VWS V14.00,2013-02-17 02:55:00,
2013-02-16 21:00:00,23.4,8.4,29.59,WNW,298,0.0,1.0,52,0.00,,---,0.00,VWS V14.00,2013-02-17 03:00:00,
2013-02-16 21:05:00,23.2,8.2,29.59,WNW,298,0.0,1.0,52,0.00,,---,0.00,VWS V14.00,2013-02-17 03:05:00,
2013-02-16 21:10:00,23.0,8.9,29.59,WNW,298,0.0,1.0,54,0.00,,---,0.00,VWS V14.00,2013-02-17 03:10:00,
2013-02-16 21:15:00,23.0,8.9,29.59,WNW,298,0.0,1.0,54,0.00,,---,0.00,VWS V14.00,2013-02-17 03:15:00,
2013-02-16 21:20:00,23.0,8.9,29.59,WNW,298,0.0,1.0,54,0.00,,---,0.00,VWS V14.00,2013-02-17 03:20:00,
2013-02-16 21:25:00,23.0,8.9,29.59,WNW,298,0.0,1.0,54,0.00,,---,0.00,VWS V14.00,2013-02-17 03:25:00,
2013-02-16 21:30:00,23.2,9.0,29.59,WNW,298,0.0,1.0,54,0.00,,---,0.00,VWS V14.00,2013-02-17 03:30:00,
2013-02-16 21:35:00,23.0,9.2,29.59,WNW,298,0.0,1.0,55,0.00,,---,0.00,VWS V14.00,2013-02-17 03:35:00,
2013-02-16 21:40:00,23.2,9.0,29.59,WNW,298,0.0,1.0,54,0.00,,---,0.00,VWS V14.00,2013-02-17 03:40:00,
2013-02-16 21:45:00,23.2,9.0,29.59,WNW,299,0.0,1.0,54,0.00,,---,0.00,VWS V14.00,2013-02-17 03:45:00,
2013-02-16 21:50:00,23.0,9.2,29.59,WNW,298,0.0,1.0,55,0.00,,---,0.00,VWS V14.00,2013-02-17 03:50:00,
2013-02-16 21:55:00,23.0,9.2,29.59,WNW,298,0.0,1.0,55,0.00,,---,0.00,VWS V14.00,2013-02-17 03:55:00,
2013-02-16 22:00:00,22.8,8.7,29.59,WNW,298,0.0,1.0,54,0.00,,---,0.00,VWS V14.00,2013-02-17 04:00:00,
2013-02-16 22:05:00,22.8,8.7,29.59,WNW,298,0.0,1.0,54,0.00,,---,0.00,VWS V14.00,2013-02-17 04:05:00,
2013-02-16 22:10:00,22.8,8.7,29.59,WNW,298,0.0,1.0,54,0.00,,---,0.00,VWS V14.00,2013-02-17 04:10:00,
2013-02-16 22:15:00,22.8,9.1,29.59,WNW,298,0.0,1.0,55,0.00,,---,0.00,VWS V14.00,2013-02-17 04:15:00,
2013-02-16 22:20:00,22.8,9.1,29.59,WNW,298,0.0,1.0,55,0.00,,---,0.00,VWS V14.00,2013-02-17 04:20:00,
2013-02-16 22:25:00,22.8,9.1,29.59,WNW,298,0.0,1.0,55,0.00,,---,0.00,VWS V14.00,2013-02-17 04:25:00,
2013-02-16 22:30:00,22.8,9.1,29.59,WNW,298,0.0,1.0,55,0.00,,---,0.00,VWS V14.00,2013-02-17 04:30:00,
2013-02-16 22:35:00,22.8,9.1,29.59,WNW,298,0.0,1.0,55,0.00,,---,0.00,VWS V14.00,2013-02-17 04:35:00,
2013-02-16 22:40:00,23.0,9.2,29.59,WNW,298,0.0,1.0,55,0.00,,---,0.00,VWS V14.00,2013-02-17 04:40:00,
2013-02-16 22:45:00,22.8,9.1,29.59,WNW,298,0.0,1.0,55,0.00,,---,0.00,VWS V14.00,2013-02-17 04:45:00,
2013-02-16 22:50:00,22.8,9.1,29.56,WNW,298,0.0,1.0,55,0.00,,---,0.00,VWS V14.00,2013-02-17 04:50:00,
2013-02-16 22:55:00,23.0,9.2,29.56,WNW,298,0.0,1.0,55,0.00,,---,0.00,VWS V14.00,2013-02-17 04:55:00,
2013-02-16 23:00:00,23.0,8.9,29.56,WNW,298,0.0,1.0,54,0.00,,---,0.00,VWS V14.00,2013-02-17 05:00:00,
2013-02-16 23:05:00,23.4,9.2,29.59,WNW,298,0.0,1.0,54,0.00,,---,0.00,VWS V14.00,2013-02-17 05:05:00,
2013-02-16 23:10:00,23.5,8.5,29.59,WNW,298,0.0,1.0,52,0.00,,---,0.00,VWS V14.00,2013-02-17 05:10:00,
2013-02-16 23:15:00,23.5,8.5,29.59,WNW,298,0.0,1.0,52,0.00,,---,0.00,VWS V14.00,2013-02-17 05:15:00,
2013-02-16 23:20:00,23.7,8.2,29.59,WNW,292,0.0,1.0,51,0.00,,---,0.00,VWS V14.00,2013-02-17 05:20:00,
2013-02-16 23:25:00,23.7,8.2,29.59,WSW,249,0.0,1.0,51,0.00,,---,0.00,VWS V14.00,2013-02-17 05:25:00,
2013-02-16 23:30:00,24.3,8.8,29.59,WSW,243,0.0,1.0,51,0.00,,---,0.00,VWS V14.00,2013-02-17 05:30:00,
2013-02-16 23:35:00,24.4,8.9,29.59,WSW,247,0.0,1.0,51,0.00,,---,0.00,VWS V14.00,2013-02-17 05:35:00,
2013-02-16 23:40:00,24.3,8.8,29.59,WSW,247,0.0,1.0,51,0.00,,---,0.00,VWS V14.00,2013-02-17 05:40:00,
2013-02-16 23:45:00,24.1,8.6,29.59,WSW,256,0.0,1.0,51,0.00,,---,0.00,VWS V14.00,2013-02-17 05:45:00,
2013-02-16 23:50:00,23.9,8.4,29.59,WSW,256,0.0,1.0,51,0.00,,---,0.00,VWS V14.00,2013-02-17 05:50:00,
2013-02-16 23:55:00,23.9,8.4,29.59,WSW,255,0.0,1.0,51,0.00,,---,0.00,VWS V14.00,2013-02-17 05:55:00,